User: anonymous   Login
Location: Whispering Pines Observatory
(39.4020°N, 104.7430°W)
Time: 05:59:12
(UTC-07:00)
Language:

MOS 1 Rocket - Orbit

View from above orbital plane
View from above orbital plane
View from above satellite
View from above satellite

Ground track
Ground track

The orbit data is extracted from the following two-line orbital elements,

1 17528U 87018B   17017.02884649  .00000101  00000-0  31299-4 0  9994
2 17528  97.4301 351.4057 0153631  51.3605 350.8524 14.50731289577964
Epoch (UTC): 17 January 2017 00:41:32
Eccentricity: 0.0153631
inclination: 97.4301°
perigee height: 614 km
apogee height: 832 km
right ascension of ascending node: 351.4057°
argument of perigee: 51.3605°
revolutions per day: 14.50731289
mean anomaly at epoch: 350.8524°
orbit number at epoch: 57796

The dashed part of the orbit path shows where the satellite is in the earth's shadow,  

DLR